Location: Buckhorn Peak
(37.6641°N, 120.1241°W)
Time: 07:23:16
(UTC+00:00)

Envisat - Pass Details

Date: 07 October 2024
Orbit: 762 x 763 km, 98.3° (Epoch: 03 November)

Event Time Altitude Azimuth Distance (km) Brightness Sun altitude
Rises 11:56:43 0° 1° (N) 3,232 6.4 -25.5°
Reaches altitude 10° 11:59:15 10° 351° (N) 2,302 5.5 -25.0°
Enters shadow 12:01:04 20° 336° (NNW) 1,736 4.7 -24.6°
